Regional Weather Roundup
Issued by NWS New Orleans/Baton Rouge, LA

Home | Current Version | Previous Version | Graphics & Text | Print | Product List | Glossary On
Versions: 1 2 3 4 5 6 7 8 9 10 11 12 13 14 15 16 17 18 19 20 21 22 23 24 25 26 27 28 29 30 31 32 33 34 35 36 37 38 39 40 41 42 43 44 45 46 47 48 49 50
293
ASUS44 KLIX 010901
RWRLIX
NEW ORLEANS REGIONAL WEATHER ROUNDUP
NATIONAL WEATHER SERVICE NEW ORLEANS LA
300 AM CST SUN MAR 01 2015

NOTE: "FAIR" INDICATES FEW OR NO CLOUDS BELOW 12,000 FEET WITH NO
      SIGNIFICANT WEATHER AND/OR OBSTRUCTIONS TO VISIBILITY.
      SKY/WX - SKY CONDITION AND SIGNIFICANT WEATHER.
      TMP - AIR TEMPERATURE.     DP    - DEWPOINT TEMPERATURE.
      RH  - RELATIVE HUMIDITY.   PRES  - PRESSURE.
      HI  - HEAT INDEX.          WCI   - WIND CHILL INDEX.

*  THESE STATIONS ARE NOT NWS OR FAA STATIONS AND ARE NOT UNDER
   NWS QUALITY CONTROL.

LAZ038-040-048-061>063-065>067-069-011000-
SOUTHEAST LOUISIANA

CITY           SKY/WX    TMP DP  RH WIND       PRES   REMARKS
N.O. AUDUBON   NOT AVBL
N.O. INTL ARPT CLOUDY    57  55  93 E10       30.27F FOG
N.O. LAKEFRONT CLOUDY    57  53  86 E16       30.29F FOG
SLIDELL        CLOUDY    55  53  93 E9        30.29F
BATON ROUGE    CLOUDY    56  54  93 E14       30.26F
BOOTHVILLE     CLOUDY    58  57  97 E7        30.28F FOG
BELLE CHASSE   CLOUDY    58  54  86 E15       30.27F FOG
BOGALUSA*        N/A     58  52  81 CALM      30.33F
GALLIANO*      FOG       54  53  97 NE3       30.27R VSB 3/4
NEW ROADS*     NOT AVBL
GONZALES*      NOT AVBL
HAMMOND*       NOT AVBL
HOUMA*         CLOUDY    59  58  97 E9        30.26F FOG
PORT FOURCHON* CLOUDY    61  59  94 E10       30.28F FOG

$$

MSZ070-080>082-011000-
SOUTHERN MISSISSIPPI

CITY           SKY/WX    TMP DP  RH WIND       PRES   REMARKS
MCCOMB         CLOUDY    53  51  93 SE10      30.27F
GULFPORT       CLOUDY    55  52  89 E13       30.31F
BILOXI         NOT AVBL
PASCAGOULA     CLOUDY    52  51  97 E8        30.34F FOG

$$

COASTAL OBSERVATIONS
LAKE AND NEARSHORE STATIONS

STATION/POSITION TIME  TEMP    WIND        PRES    WAVE
                       AIR SEA DIR/SP/G            HT/PER
                 (UTC) (F)     (DEG/KT/KT) (MB)    (FT/S)
PASCAGOULA       0800   52      60/ 10/ 14 1027.2
WAVELAND YACHT   0800   52 52  120/ 18/ 22 1026.1
GRAND ISLE       0800   59 57   80/  9/ 14 1025.7
SOUTHWEST PASS   0800           80/ 14/ 15   N/A
NEW CANAL        0800   56     150/  3/ 10 1026.2
SHELL BEACH      0800   55 53   80/ 17/ 19 1025.5

OFFSHORE STATIONS

STATION/POSITION TIME  TEMP    WIND        PRES    WAVE
                       AIR SEA DIR/SP/G            HT/PER
                 (UTC) (F)     (DEG/KT/KT) (MB)    (FT/S)
64 S DAUPHIN ISL 0755   65 71  100/ 17/ 21 1026.2    6/ 7

$$




USA.gov is the U.S. government's official web portal to all federal, state and local government web resources and services.